Location: ??????
(38.3184°N, 23.6932°E)
Time: 02:47:35
(UTC+00:00)

Radarsat Rocket - Pass Details

Date: 16 October 2021
Orbit: 933 x 1491 km, 100.6° (Epoch: 04 December)

Event Time Altitude Azimuth Distance (km) Brightness Sun altitude
Rises 16:11:23 0° 168° (SSE) 3,610 6.9 -5.8°
Reaches altitude 10° 16:13:44 10° 171° (S) 2,700 6.3 -6.2°
Maximum altitude 16:19:43 73° 255° (WSW) 1,074 4.5 -7.4°
Drops below altitude 10° 16:26:26 10° 341° (NNW) 3,009 6.8 -8.7°
Sets 16:29:10 0° 343° (NNW) 4,052 7.4 -9.3°
